Regional Weather Roundup
Issued by NWS

Home | Current Version | Previous Version | Text Only | Print | Product List | Glossary On
Versions: 1 2 3 4 5 6 7 8 9 10 11 12 13 14 15 16 17 18 19 20 21 22 23 24 25 26 27 28 29 30 31 32 33 34 35 36 37 38 39 40 41 42 43 44 45 46 47 48 49 50
098
ASUS44 KJAN 241103
RWRMS

MISSISSIPPI HOURLY WEATHER ROUNDUP
NATIONAL WEATHER SERVICE JACKSON MS
500 AM CST MON NOV 24 2014

NOTE: "FAIR: INDICATES FEW OR NO CLOUDS BELOW 12,000 FEET WITH NO
SIGNIFICANT WEATHER AND/OR OBSTRUCTIONS TO VISIBILITY.

MSZ001>002-007>008-010>013-018>021-025>028-034>036-241200-
NORTHWEST MISSISSIPPI

CITY           SKY/WX    TMP DP  RH WIND       PRES   REMARKS
CLARKSDALE     CLOUDY    54  46  76 W22G32    29.69R
CLEVELAND      CLOUDY    54  49  83 W14G23    29.71R
GREENWOOD      MOCLDY    58  48  69 W13G24    29.72R
GREENVILLE     CLOUDY    55  45  68 W20       29.73R
GRENADA        PTSUNNY   55  46  71 W13G25    29.69R
OLIVE BRANCH   CLOUDY    54  50  87 W17G33    29.61R
OXFORD         CLOUDY    57  48  72 W20G28    29.65R
TUNICA         CLOUDY    54  45  71 W21       29.67R
$$

MSZ003>006-009-014>017-022>024-029>033-037>039-241200-
NORTHEAST MISSISSIPPI

CITY           SKY/WX    TMP DP  RH WIND       PRES   REMARKS
COLUMBUS AFB   CLEAR     59  58  96 S7        29.67R
CORINTH        CLOUDY    61  52  72 SW15      29.59R
GOLDN TRIANGLE CLEAR     59  55  88 S8        29.66R
STARKVILLE       N/A     61  57  88 SW6       29.67R
TUPELO         PTCLDY    60  53  77 MISG      29.63R
$$

MSZ040-058-241200-
CENTRAL MISSISSIPPI

CITY           SKY/WX    TMP DP  RH WIND       PRES   REMARKS
JACKSON INTL   CLEAR     60  58  92 SW7       29.74R
JACKSON HAWKNS PTCLDY    60  57  89 W8        29.74R
MERIDIAN KEY   CLEAR     61  59  93 SW9       29.73R
MERIDIAN NAS   MOCLDY    64  60  87 VRB7      29.72R
RAYMOND        FAIR      59  54  82 W6        29.74R
VICKSBURG      CLEAR     56  49  77 W8G20     29.77R
$$

MSZ059>079-241200-
SOUTH MISSISSIPPI

CITY           SKY/WX    TMP DP  RH WIND       PRES   REMARKS
BROOKHAVEN     FAIR      63  61  94 SW6       29.76S
HATTIESBURG    CLEAR     66  63  90 SW8       29.76R
MCCOMB         PTCLDY    63  60  90 W6        29.76R
NATCHEZ        CLEAR     57  52  82 W8        29.80R
PINE BELT      PTCLDY    64  61  88 SW6       29.76R
$$

MSZ080>082-241200-
COASTAL MISSISSIPPI

CITY           SKY/WX    TMP DP  RH WIND       PRES   REMARKS
BILOXI         FOG       67  67 100 VRB7      29.77S VSB 1/2
PASCAGOULA     CLOUDY    67  67 100 VRB7      29.78R FOG
GULFPORT       CLOUDY    67  67 100 W9        29.77R FOG
$$



USA.gov is the U.S. government's official web portal to all federal, state and local government web resources and services.